EW7199 Weather Reports


time (UTC)temp
F
wind
direction
speed
knots
gust
knots
rain 1hr
in
rain 24hr
in
rain mn
in
humidity
%
barometer
mb
20260831225410 83 140 0.9 2.6 0.00 0.00 0.00 78 1013.9
20260831224910 83 117 1.7 2.6 0.00 0.00 0.00 78 1013.9
20260831224410 83 136 0.9 1.7 0.00 0.00 0.00 78 1013.8
20260831223910 83 133 0.9 2.6 0.00 0.00 0.00 78 1013.8
20260831223410 83 121 0.9 2.6 0.00 0.00 0.00 77 1013.7
20260831222910 83 133 0.9 2.6 0.00 0.00 0.00 77 1013.7
20260831221910 83 125 0.9 2.6 0.00 0.00 0.00 76 1013.7
20260831221410 83 115 0.9 2.6 0.00 0.00 0.00 76 1013.7
20260831220410 84 94 0.0 1.7 0.00 0.00 0.00 76 1013.7
20260831215910 84 94 0.0 2.6 0.00 0.00 0.00 76 1013.7
20260831215410 84 105 1.7 2.6 0.00 0.00 0.00 75 1013.7
20260831214908 84 102 0.9 2.6 0.00 0.00 0.00 75 1013.7
20260831214410 85 99 1.7 2.6 0.00 0.00 0.00 74 1013.6
20260831213908 85 99 1.7 2.6 0.00 0.00 0.00 73 1013.5
20260831212909 85 99 0.0 1.7 0.00 0.00 0.00 72 1013.5
20260831212410 85 98 0.0 1.7 0.00 0.00 0.00 72 1013.6
20260831211908 86 94 0.0 0.9 0.00 0.00 0.00 71 1013.5
20260831211409 86 94 0.9 2.6 0.00 0.00 0.00 70 1013.5
20260831210909 86 93 0.9 2.6 0.00 0.00 0.00 69 1013.5
20260831210410 86 103 0.9 1.7 0.00 0.00 0.00 69 1013.4
20260831205909 86 105 0.0 0.9 0.00 0.00 0.00 69 1013.4
20260831205409 86 105 0.0 0.9 0.00 0.00 0.00 69 1013.3
20260831204909 86 104 0.0 0.9 0.00 0.00 0.00 69 1013.3
20260831204409 86 103 0.0 0.9 0.00 0.00 0.00 68 1013.2
20260831203909 86 103 0.0 1.7 0.00 0.00 0.00 68 1013.2
20260831203410 86 103 0.9 2.6 0.00 0.00 0.00 68 1013.2
20260831202908 86 105 0.0 0.0 0.00 0.00 0.00 67 1013.2
20260831202409 86 103 0.0 1.7 0.00 0.00 0.00 67 1013.1
20260831201910 86 103 0.0 0.9 0.00 0.00 0.00 67 1013.1
20260831201409 87 103 0.9 1.7 0.00 0.00 0.00 67 1013.1
20260831200410 87 100 1.7 2.6 0.00 0.00 0.00 66 1013.1
20260831194910 86 238 0.9 1.7 0.00 0.00 0.00 66 1013.0
20260831194410 86 240 0.9 1.7 0.00 0.00 0.00 66 1013.0
20260831193909 86 261 0.9 1.7 0.00 0.00 0.00 68 1013.0
20260831193410 86 272 0.9 1.7 0.00 0.00 0.00 69 1013.0
20260831192909 86 269 0.9 1.7 0.00 0.00 0.00 69 1013.0
20260831191911 86 241 0.9 1.7 0.00 0.00 0.00 71 1013.0
20260831191409 86 251 1.7 2.6 0.00 0.00 0.00 70 1013.0
20260831190910 86 249 0.9 1.7 0.00 0.00 0.00 70 1013.0
20260831190410 86 243 0.9 1.7 0.00 0.00 0.00 69 1012.9
20260831185910 87 262 0.9 2.6 0.00 0.00 0.00 69 1012.9
20260831185410 86 268 0.9 2.6 0.00 0.00 0.00 68 1012.9
20260831184910 86 247 1.7 2.6 0.00 0.00 0.00 69 1012.9
20260831184410 86 271 0.9 2.6 0.00 0.00 0.00 69 1012.9
20260831183909 86 270 1.7 2.6 0.00 0.00 0.00 69 1012.8
20260831183409 86 285 1.7 2.6 0.00 0.00 0.00 68 1012.8
20260831182910 86 268 1.7 2.6 0.00 0.00 0.00 69 1012.6
20260831182410 86 264 1.7 2.6 0.00 0.00 0.00 70 1012.5
20260831181909 87 259 1.7 2.6 0.00 0.00 0.00 69 1012.4
20260831180910 87 264 1.7 2.6 0.00 0.00 0.00 69 1012.2
20260831180409 86 251 0.9 1.7 0.00 0.00 0.00 68 1012.2
20260831175910 86 269 0.9 1.7 0.00 0.00 0.00 70 1012.2
20260831175409 86 262 0.9 1.7 0.00 0.00 0.00 71 1012.3
20260831173909 87 249 1.7 2.6 0.00 0.00 0.00 72 1012.3
20260831173409 87 242 0.9 1.7 0.00 0.00 0.00 71 1012.3
20260831172909 87 262 0.9 1.7 0.00 0.00 0.00 69 1012.4
20260831172409 87 261 1.7 2.6 0.00 0.00 0.00 68 1012.5
20260831171910 88 244 1.7 2.6 0.00 0.00 0.00 66 1012.4
20260831171409 88 254 1.7 2.6 0.00 0.00 0.00 63 1012.2
20260831170909 88 224 0.9 0.9 0.00 0.00 0.00 63 1012.2
20260831170409 88 224 0.0 0.9 0.00 0.00 0.00 63 1012.1
20260831165409 88 219 0.9 2.6 0.00 0.00 0.00 63 1012.3
20260831164909 88 223 0.9 1.7 0.00 0.00 0.00 63 1012.3
20260831164408 87 224 0.9 2.6 0.00 0.00 0.00 63 1012.4
20260831163910 87 228 1.7 2.6 0.00 0.00 0.00 62 1012.5
20260831163409 88 239 1.7 2.6 0.00 0.00 0.00 64 1012.5
20260831162910 88 228 1.7 2.6 0.00 0.00 0.00 63 1012.5
20260831162408 88 222 2.6 2.6 0.00 0.00 0.00 62 1012.4
20260831161909 89 227 0.9 2.6 0.00 0.00 0.00 64 1012.4
20260831161409 89 140 0.9 2.6 0.00 0.00 0.00 64 1012.4
20260831160910 89 140 0.9 2.6 0.00 0.00 0.00 64 1012.5
20260831160409 89 137 0.9 2.6 0.00 0.00 0.00 64 1012.4
20260831155909 89 115 0.9 2.6 0.00 0.00 0.00 65 1012.2
20260831155409 89 105 1.7 2.6 0.00 0.00 0.00 64 1012.1
20260831154909 89 79 1.7 2.6 0.00 0.00 0.00 64 1012.0
20260831154409 89 132 0.9 2.6 0.00 0.00 0.00 63 1011.9
20260831153908 89 59 0.9 2.6 0.00 0.00 0.00 62 1012.0
20260831153409 90 74 1.7 2.6 0.00 0.00 0.00 59 1011.9
20260831152909 91 56 1.7 2.6 0.00 0.00 0.00 56 1012.0
20260831151909 92 296 0.9 1.7 0.00 0.00 0.00 46 1012.0
20260831151408 91 263 0.9 2.6 0.00 0.00 0.00 47 1012.0
20260831150909 91 66 1.7 2.6 0.00 0.00 0.00 47 1012.1
20260831150409 91 58 0.9 2.6 0.00 0.00 0.00 48 1012.1
20260831145909 90 44 1.7 2.6 0.00 0.00 0.00 48 1012.1
20260831145409 89 97 0.9 2.6 0.00 0.00 0.00 52 1012.0
20260831144909 88 61 1.7 2.6 0.00 0.00 0.00 55 1011.9
20260831144414 88 53 2.6 2.6 0.00 0.00 0.00 58 1012.0
20260831143908 89 41 1.7 2.6 0.00 0.00 0.00 58 1012.1
20260831143409 89 28 1.7 2.6 0.00 0.00 0.00 60 1012.0
20260831142910 88 49 1.7 5.2 0.00 0.00 0.00 64 1011.9
20260831142409 87 65 1.7 2.6 0.00 0.00 0.00 62 1012.1
20260831141909 88 70 2.6 5.2 0.00 0.00 0.00 66 1012.2
20260831140909 91 87 1.7 6.1 0.00 0.00 0.00 60 1012.1
20260831140410 91 81 2.6 6.1 0.00 0.00 0.00 58 1012.1
20260831135909 91 91 1.7 2.6 0.00 0.00 0.00 57 1012.2
20260831135408 91 61 1.7 2.6 0.00 0.00 0.00 54 1011.9
20260831134908 92 338 1.7 2.6 0.00 0.00 0.00 53 1012.0
20260831134409 93 53 4.3 6.1 0.00 0.00 0.00 50 1012.1
20260831133909 94 95 1.7 2.6 0.00 0.00 0.00 55 1011.7
20260831132407 93 204 0.9 2.6 0.00 0.00 0.00 56 1011.2
20260831131410 93 127 1.7 2.6 0.00 0.00 0.00 56 1011.4
20260831130408 94 150 0.9 2.6 0.00 0.00 0.00 56 1011.6
20260831125908 94 150 0.9 2.6 0.00 0.00 0.00 57 1011.7
20260831125409 93 219 0.9 2.6 0.00 0.00 0.00 57 1011.8
20260831124910 93 218 0.9 2.6 0.00 0.00 0.00 57 1011.8
20260831124409 92 248 1.7 2.6 0.00 0.00 0.00 58 1011.8
20260831123909 92 221 2.6 2.6 0.00 0.00 0.00 59 1011.8
20260831123408 92 216 2.6 4.3 0.00 0.00 0.00 58 1011.8
20260831122909 92 237 1.7 2.6 0.00 0.00 0.00 57 1011.8
20260831122409 92 223 1.7 5.2 0.00 0.00 0.00 58 1011.9
20260831121909 91 174 1.7 2.6 0.00 0.00 0.00 59 1011.9
20260831121409 91 220 1.7 2.6 0.00 0.00 0.00 60 1011.9
20260831120908 91 222 1.7 2.6 0.00 0.00 0.00 61 1012.1
20260831120409 90 221 2.6 2.6 0.00 0.00 0.00 62 1012.1
20260831115909 90 229 2.6 2.6 0.00 0.00 0.00 60 1012.2
20260831115410 90 232 1.7 2.6 0.00 0.00 0.00 63 1012.2
20260831114909 89 242 2.6 2.6 0.00 0.00 0.00 64 1012.2
20260831114409 89 231 2.6 2.6 0.00 0.00 0.00 61 1012.3
20260831113909 90 239 2.6 2.6 0.00 0.00 0.00 61 1012.3
20260831113408 90 234 1.7 2.6 0.00 0.00 0.00 60 1012.3
20260831112909 90 253 1.7 2.6 0.00 0.00 0.00 61 1012.3
20260831112408 90 238 1.7 2.6 0.00 0.00 0.00 59 1012.3
20260831110909 90 264 1.7 2.6 0.00 0.00 0.00 62 1012.4
20260831110409 90 242 1.7 2.6 0.00 0.00 0.00 61 1012.5
20260831105909 89 268 1.7 2.6 0.00 0.00 0.00 62 1012.5
20260831105409 89 234 1.7 2.6 0.00 0.00 0.00 62 1012.6
20260831104910 89 243 2.6 2.6 0.00 0.00 0.00 62 1012.7
20260831104408 89 242 2.6 2.6 0.00 0.00 0.00 62 1012.7
20260831103409 88 248 1.7 2.6 0.00 0.00 0.00 64 1012.8
20260831102909 88 232 2.6 2.6 0.00 0.00 0.00 64 1012.8
20260831102409 88 234 1.7 2.6 0.00 0.00 0.00 65 1012.8
20260831101409 88 261 1.7 2.6 0.00 0.00 0.00 63 1012.8
20260831100408 88 245 1.7 2.6 0.00 0.00 0.00 66 1012.9
20260831095909 88 238 1.7 2.6 0.00 0.00 0.00 67 1012.9
20260831095409 87 233 1.7 2.6 0.00 0.00 0.00 65 1012.9
20260831094908 87 245 2.6 5.2 0.00 0.00 0.00 65 1012.9
20260831094409 87 229 1.7 5.2 0.00 0.00 0.00 67 1012.9
20260831093908 87 260 1.7 2.6 0.00 0.00 0.00 67 1013.0
20260831093409 86 243 1.7 2.6 0.00 0.00 0.00 68 1012.9
20260831092909 86 231 1.7 2.6 0.00 0.00 0.00 66 1013.0
20260831092410 86 231 1.7 2.6 0.00 0.00 0.00 67 1013.1
20260831091909 86 250 1.7 2.6 0.00 0.00 0.00 67 1013.0
20260831091408 87 261 1.7 2.6 0.00 0.00 0.00 67 1013.0
20260831090908 86 230 1.7 2.6 0.00 0.00 0.00 68 1013.1
20260831090408 86 203 1.7 2.6 0.00 0.00 0.00 69 1013.1
20260831085908 85 232 1.7 2.6 0.00 0.00 0.00 70 1013.1
20260831084909 86 236 1.7 2.6 0.00 0.00 0.00 69 1013.2
20260831084412 86 236 1.7 2.6 0.00 0.00 0.00 69 1013.2
20260831083909 85 215 1.7 2.6 0.00 0.00 0.00 69 1013.2
20260831083408 85 223 1.7 2.6 0.00 0.00 0.00 71 1013.1
20260831082409 85 226 1.7 2.6 0.00 0.00 0.00 72 1013.1
20260831081910 85 209 0.9 2.6 0.00 0.00 0.00 74 1013.2
20260831081409 84 200 0.9 2.6 0.00 0.00 0.00 74 1013.2
20260831080908 84 226 1.7 2.6 0.00 0.00 0.00 74 1013.1
20260831080408 84 229 0.9 2.6 0.00 0.00 0.00 75 1013.1
20260831075909 84 232 1.7 2.6 0.00 0.00 0.00 75 1013.0
20260831074408 83 234 1.7 2.6 0.00 0.00 0.00 77 1012.9
20260831073910 83 237 1.7 2.6 0.00 0.00 0.00 77 1012.8
20260831073409 83 237 1.7 2.6 0.00 0.00 0.00 77 1012.8
20260831072909 83 238 1.7 2.6 0.00 0.00 0.00 77 1012.7
20260831072408 83 244 1.7 2.6 0.00 0.00 0.00 77 1012.7
20260831071908 83 226 1.7 2.6 0.00 0.00 0.00 77 1012.7
20260831071408 83 234 1.7 2.6 0.00 0.00 0.00 77 1012.7
20260831070408 83 259 1.7 2.6 0.00 0.00 0.00 77 1012.7
20260831065908 83 265 1.7 2.6 0.00 0.00 0.00 78 1012.8
20260831065408 83 253 1.7 2.6 0.00 0.00 0.00 78 1012.8
20260831064908 82 268 1.7 2.6 0.00 0.00 0.00 78 1012.8
20260831064408 82 257 1.7 2.6 0.00 0.00 0.00 78 1012.8
20260831063911 82 247 1.7 2.6 0.00 0.00 0.00 78 1012.8
20260831063408 82 264 1.7 2.6 0.00 0.00 0.00 78 1012.8
20260831062908 82 259 2.6 2.6 0.00 0.00 0.00 78 1012.9
20260831061909 83 262 1.7 2.6 0.00 0.00 0.00 77 1012.8
20260831060908 83 261 0.9 1.7 0.00 0.00 0.00 76 1012.8
20260831060408 83 251 0.9 2.6 0.00 0.00 0.00 76 1012.8
20260831055908 83 264 0.9 2.6 0.00 0.00 0.00 77 1012.7
20260831055408 83 258 0.9 2.6 0.00 0.00 0.00 76 1012.7
20260831054908 83 309 1.7 2.6 0.00 0.00 0.00 76 1012.7
20260831054407 83 295 0.9 2.6 0.00 0.00 0.00 77 1012.7
20260831053909 82 296 1.7 2.6 0.00 0.00 0.00 77 1012.7
20260831052907 82 284 1.7 2.6 0.00 0.00 0.00 77 1012.7
20260831052409 82 281 0.9 2.6 0.00 0.00 0.00 78 1012.6
20260831051909 82 272 0.9 1.7 0.00 0.00 0.00 78 1012.6
20260831051408 82 236 0.9 1.7 0.00 0.00 0.00 78 1012.6
20260831050909 82 308 1.7 2.6 0.00 0.00 0.00 78 1012.6
20260831050408 82 296 0.9 1.7 0.00 0.00 0.00 78 1012.5
20260831045907 82 292 0.9 2.6 0.00 0.00 0.00 79 1012.5
20260831044907 82 285 1.7 2.6 0.00 0.00 0.00 79 1012.5
20260831044408 82 310 1.7 2.6 0.00 0.00 0.00 79 1012.4
20260831043908 82 268 0.9 2.6 0.00 0.00 0.00 80 1012.4
20260831043408 82 251 0.9 2.6 0.00 0.00 0.00 80 1012.4
20260831042909 82 321 0.9 2.6 0.00 0.00 0.00 80 1012.5
20260831042408 82 274 1.7 2.6 0.00 0.00 0.00 80 1012.5
20260831041907 82 226 0.9 1.7 0.00 0.00 0.00 80 1012.4
20260831041409 82 304 0.9 1.7 0.00 0.00 0.00 80 1012.5
20260831040908 82 272 0.9 2.6 0.00 0.00 0.00 80 1012.4
20260831040408 82 272 1.7 2.6 0.00 0.00 0.00 80 1012.4
20260831035407 82 256 1.7 2.6 0.00 0.00 0.00 80 1012.3
20260831034908 82 296 0.9 2.6 0.00 0.00 0.00 80 1012.3
20260831034408 82 243 1.7 2.6 0.00 0.00 0.00 79 1012.2
20260831033907 82 264 0.9 2.6 0.00 0.00 0.00 79 1012.3
20260831033408 82 298 1.7 2.6 0.00 0.00 0.00 79 1012.2
20260831032908 82 244 1.7 2.6 0.00 0.00 0.00 80 1012.3
20260831031908 82 293 0.9 2.6 0.00 0.00 0.00 79 1012.3
20260831031408 82 265 1.7 2.6 0.00 0.00 0.00 79 1012.2
20260831030908 82 261 1.7 2.6 0.00 0.00 0.00 79 1012.2
20260831030408 82 263 1.7 2.6 0.00 0.00 0.00 79 1012.2
20260831025909 82 278 0.9 2.6 0.00 0.00 0.00 79 1012.2
20260831025408 82 274 0.9 2.6 0.00 0.00 0.00 78 1012.2
20260831024907 82 293 1.7 2.6 0.00 0.00 0.00 78 1012.2
20260831024409 82 295 1.7 2.6 0.00 0.00 0.00 78 1012.1
20260831023908 82 309 1.7 2.6 0.00 0.00 0.00 78 1012.1
20260831023408 82 268 1.7 2.6 0.00 0.00 0.00 78 1012.1
20260831022907 82 275 0.9 2.6 0.00 0.00 0.00 77 1012.1
20260831022408 82 271 0.9 2.6 0.00 0.00 0.00 77 1012.0
20260831021907 82 283 1.7 2.6 0.00 0.00 0.00 77 1012.1
20260831020908 82 244 0.9 2.6 0.00 0.00 0.00 76 1012.1
20260831020408 82 264 1.7 2.6 0.00 0.00 0.00 75 1012.1
20260831015408 83 268 1.7 2.6 0.00 0.00 0.00 74 1012.0
20260831014907 83 294 0.9 2.6 0.00 0.00 0.00 74 1012.0
20260831014409 83 278 1.7 2.6 0.00 0.00 0.00 74 1012.0
20260831013408 83 288 1.7 2.6 0.00 0.00 0.00 74 1012.0
20260831012908 83 263 1.7 2.6 0.00 0.00 0.00 73 1011.9
20260831011908 83 265 1.7 2.6 0.00 0.00 0.00 72 1011.9
20260831011409 83 289 2.6 2.6 0.00 0.00 0.00 72 1011.9
20260831010908 83 275 2.6 2.6 0.00 0.00 0.00 71 1011.9
20260831010409 84 267 1.7 2.6 0.00 0.00 0.00 71 1011.9
20260831005908 84 270 1.7 2.6 0.00 0.00 0.00 71 1012.0
20260831004907 84 282 1.7 2.6 0.00 0.00 0.00 71 1011.9
20260831004408 84 275 1.7 2.6 0.00 0.00 0.00 71 1011.9
20260831003908 84 302 2.6 2.6 0.00 0.00 0.00 71 1011.9
20260831002907 84 259 1.7 2.6 0.00 0.00 0.00 72 1011.8
20260831001907 84 298 1.7 2.6 0.00 0.00 0.00 71 1011.9
20260831001408 84 318 1.7 2.6 0.00 0.00 0.00 72 1011.9
20260831000908 84 294 1.7 2.6 0.00 0.00 0.00 73 1011.8
20260830235907 84 244 1.7 2.6 0.00 0.00 0.00 78 1011.8
20260830235409 84 254 1.7 2.6 0.00 0.00 0.00 79 1011.7
20260830234908 84 257 1.7 2.6 0.00 0.00 0.00 79 1011.7
20260830234407 84 263 1.7 2.6 0.00 0.00 0.00 80 1011.7
20260830233908 84 258 0.9 2.6 0.00 0.00 0.00 81 1011.7
20260830233408 84 260 1.7 2.6 0.00 0.00 0.00 80 1011.6
20260830232908 85 266 1.7 2.6 0.00 0.00 0.00 80 1011.5
20260830232407 85 267 1.7 2.6 0.00 0.00 0.00 79 1011.5
20260830231908 85 246 0.9 1.7 0.00 0.00 0.00 79 1011.5
20260830231409 85 262 1.7 2.6 0.00 0.00 0.00 79 1011.5
20260830230908 85 261 1.7 2.6 0.00 0.00 0.00 80 1011.4
20260830230408 85 259 0.9 1.7 0.00 0.00 0.00 80 1011.4